| time (UTC) | temp C | wind direction | speed KPH | gust KPH | rain 1hr cm | rain 24hr cm | rain mn cm | humidity % | barometer mb |
| 20260903011402 | 27 | 122 | 0.0 | 0.0 | 0.00 | 0.00 | 0.00 | 81 | 1018.6 |
| 20260903010857 | 28 | 188 | 0.0 | 3.2 | 0.00 | 0.00 | 0.00 | 81 | 1018.5 |
| 20260903010353 | 28 | 263 | 3.2 | 4.8 | 0.00 | 0.00 | 0.00 | 81 | 1018.4 |
| 20260903005850 | 28 | 228 | 4.8 | 4.8 | 0.00 | 0.00 | 0.00 | 81 | 1018.7 |
| 20260903005346 | 28 | 194 | 0.0 | 9.7 | 0.00 | 0.00 | 0.00 | 81 | 1018.3 |
| 20260903004842 | 28 | 154 | 0.0 | 3.2 | 0.00 | 0.00 | 0.00 | 81 | 1018.4 |
| 20260903004338 | 28 | 106 | 0.0 | 4.8 | 0.00 | 0.00 | 0.00 | 80 | 1018.4 |
| 20260903003833 | 28 | 106 | 0.0 | 3.2 | 0.00 | 0.00 | 0.00 | 80 | 1018.4 |
| 20260903003333 | 28 | 160 | 0.0 | 4.8 | 0.00 | 0.00 | 0.00 | 79 | 1018.5 |
| 20260903002833 | 28 | 145 | 3.2 | 4.8 | 0.00 | 0.00 | 0.00 | 79 | 1018.4 |
| 20260903002327 | 28 | 120 | 0.0 | 4.8 | 0.00 | 0.00 | 0.00 | 78 | 1018.4 |
| 20260903001822 | 29 | 180 | 0.0 | 3.2 | 0.00 | 0.00 | 0.00 | 77 | 1018.4 |
| 20260903001318 | 29 | 261 | 0.0 | 3.2 | 0.00 | 0.00 | 0.00 | 77 | 1018.5 |
| 20260903000817 | 29 | 166 | 3.2 | 3.2 | 0.00 | 0.00 | 0.00 | 76 | 1018.5 |
| 20260903000313 | 30 | 81 | 0.0 | 4.8 | 0.00 | 0.00 | 0.00 | 75 | 1018.2 |
| 20260902235810 | 30 | 180 | 0.0 | 6.4 | 0.00 | 0.00 | 0.00 | 75 | 1018.2 |
| 20260902235306 | 30 | 120 | 0.0 | 8.0 | 0.00 | 0.00 | 0.00 | 74 | 1018.3 |
| 20260902234800 | 30 | 165 | 0.0 | 3.2 | 0.00 | 0.00 | 0.00 | 73 | 1018.2 |
| 20260902234259 | 30 | 140 | 0.0 | 4.8 | 0.00 | 0.00 | 0.00 | 73 | 1018.3 |
| 20260902233753 | 30 | 194 | 0.0 | 8.0 | 0.00 | 0.00 | 0.00 | 72 | 1018.2 |
| 20260902233248 | 30 | 195 | 3.2 | 8.0 | 0.00 | 0.00 | 0.00 | 71 | 1018.3 |
| 20260902232747 | 31 | 180 | 0.0 | 4.8 | 0.00 | 0.00 | 0.00 | 71 | 1018.3 |
| 20260902232247 | 31 | 100 | 0.0 | 8.0 | 0.00 | 0.00 | 0.00 | 71 | 1018.2 |
| 20260902231746 | 31 | 259 | 4.8 | 8.0 | 0.00 | 0.00 | 0.00 | 70 | 1018.2 |
| 20260902231241 | 31 | 131 | 0.0 | 11.3 | 0.00 | 0.00 | 0.00 | 70 | 1018.2 |
| 20260902230741 | 31 | 187 | 0.0 | 14.5 | 0.00 | 0.00 | 0.00 | 70 | 1018.4 |
| 20260902230240 | 31 | 240 | 0.0 | 9.7 | 0.00 | 0.00 | 0.00 | 69 | 1018.4 |
| 20260902225735 | 31 | 249 | 3.2 | 9.7 | 0.00 | 0.00 | 0.00 | 69 | 1018.3 |
| 20260902225230 | 31 | 174 | 8.0 | 14.5 | 0.00 | 0.00 | 0.00 | 68 | 1018.3 |
| 20260902224729 | 31 | 216 | 4.8 | 14.5 | 0.00 | 0.00 | 0.00 | 68 | 1018.2 |
| 20260902224224 | 32 | 187 | 6.4 | 14.5 | 0.00 | 0.00 | 0.00 | 67 | 1018.4 |
| 20260902223720 | 32 | 180 | 4.8 | 12.9 | 0.00 | 0.00 | 0.00 | 67 | 1018.5 |
| 20260902223219 | 32 | 236 | 6.4 | 12.9 | 0.00 | 0.00 | 0.00 | 67 | 1018.4 |
| 20260902222718 | 32 | 206 | 4.8 | 11.3 | 0.00 | 0.00 | 0.00 | 67 | 1018.4 |
| 20260902222213 | 32 | 203 | 6.4 | 17.7 | 0.00 | 0.00 | 0.00 | 65 | 1018.5 |
| 20260902221708 | 32 | 204 | 12.9 | 12.9 | 0.00 | 0.00 | 0.00 | 65 | 1018.6 |
| 20260902221207 | 32 | 180 | 0.0 | 11.3 | 0.00 | 0.00 | 0.00 | 64 | 1018.6 |
| 20260902220702 | 33 | 223 | 14.5 | 20.9 | 0.00 | 0.00 | 0.00 | 63 | 1018.7 |
| 20260902220157 | 33 | 131 | 4.8 | 17.7 | 0.00 | 0.00 | 0.00 | 62 | 1018.5 |
| 20260902215653 | 34 | 180 | 0.0 | 14.5 | 0.00 | 0.00 | 0.00 | 62 | 1018.6 |
| 20260902215148 | 34 | 203 | 8.0 | 14.5 | 0.00 | 0.00 | 0.00 | 62 | 1018.6 |
| 20260902214643 | 34 | 200 | 8.0 | 14.5 | 0.00 | 0.00 | 0.00 | 61 | 1018.7 |
| 20260902214142 | 34 | 180 | 4.8 | 20.9 | 0.00 | 0.00 | 0.00 | 60 | 1018.6 |
| 20260902213638 | 35 | 0 | 4.8 | 12.9 | 0.00 | 0.00 | 0.00 | 61 | 1019.0 |
| 20260902213137 | 34 | 218 | 11.3 | 17.7 | 0.00 | 0.00 | 0.00 | 60 | 1018.8 |
| 20260902212632 | 35 | 208 | 6.4 | 14.5 | 0.00 | 0.00 | 0.00 | 59 | 1018.5 |
| 20260902212128 | 35 | 221 | 0.0 | 9.7 | 0.00 | 0.00 | 0.00 | 60 | 1018.7 |
| 20260902211625 | 35 | 227 | 8.0 | 9.7 | 0.00 | 0.00 | 0.00 | 61 | 1018.5 |
| 20260902211119 | 34 | 180 | 4.8 | 14.5 | 0.00 | 0.00 | 0.00 | 60 | 1018.6 |
| 20260902210619 | 35 | 189 | 4.8 | 11.3 | 0.00 | 0.00 | 0.00 | 59 | 1018.7 |
| 20260902210114 | 35 | 203 | 0.0 | 16.1 | 0.00 | 0.00 | 0.00 | 60 | 1018.7 |
| 20260902205613 | 35 | 196 | 0.0 | 16.1 | 0.00 | 0.00 | 0.00 | 59 | 1018.8 |
| 20260902205109 | 35 | 262 | 6.4 | 12.9 | 0.00 | 0.00 | 0.00 | 59 | 1019.0 |
| 20260902204608 | 35 | 233 | 8.0 | 16.1 | 0.00 | 0.00 | 0.00 | 58 | 1018.8 |
| 20260902204103 | 35 | 262 | 3.2 | 22.5 | 0.00 | 0.00 | 0.00 | 58 | 1019.0 |
| 20260902203559 | 35 | 255 | 0.0 | 8.0 | 0.00 | 0.00 | 0.00 | 60 | 1019.0 |
| 20260902203058 | 35 | 111 | 0.0 | 8.0 | 0.00 | 0.00 | 0.00 | 60 | 1019.0 |
| 20260902202554 | 35 | 229 | 4.8 | 8.0 | 0.00 | 0.00 | 0.00 | 59 | 1019.2 |
| 20260902202050 | 35 | 180 | 0.0 | 11.3 | 0.00 | 0.00 | 0.00 | 58 | 1019.2 |
| 20260902201546 | 35 | 255 | 6.4 | 14.5 | 0.00 | 0.00 | 0.00 | 61 | 1019.4 |
| 20260902201044 | 34 | 300 | 0.0 | 12.9 | 0.00 | 0.00 | 0.00 | 59 | 1019.3 |
| 20260902200540 | 35 | 247 | 4.8 | 14.5 | 0.00 | 0.00 | 0.00 | 59 | 1019.3 |
| 20260902200036 | 35 | 90 | 4.8 | 19.3 | 0.00 | 0.00 | 0.00 | 59 | 1019.6 |
| 20260902195532 | 35 | 188 | 8.0 | 12.9 | 0.00 | 0.00 | 0.00 | 60 | 1019.6 |
| 20260902195031 | 35 | 188 | 8.0 | 14.5 | 0.00 | 0.00 | 0.00 | 59 | 1019.8 |
| 20260902194530 | 35 | 258 | 0.0 | 11.3 | 0.00 | 0.00 | 0.00 | 57 | 1019.5 |
| 20260902194026 | 35 | 234 | 4.8 | 14.5 | 0.00 | 0.00 | 0.00 | 60 | 1019.7 |
| 20260902193522 | 35 | 7 | 3.2 | 11.3 | 0.00 | 0.00 | 0.00 | 60 | 1019.6 |
| 20260902193021 | 35 | 221 | 9.7 | 12.9 | 0.00 | 0.00 | 0.00 | 59 | 1019.7 |
| 20260902192520 | 35 | 198 | 0.0 | 8.0 | 0.00 | 0.00 | 0.00 | 59 | 1019.8 |
| 20260902192019 | 35 | 114 | 3.2 | 11.3 | 0.00 | 0.00 | 0.00 | 58 | 1019.7 |
| 20260902191514 | 35 | 225 | 0.0 | 6.4 | 0.00 | 0.00 | 0.00 | 58 | 1019.9 |
| 20260902191009 | 35 | 180 | 8.0 | 11.3 | 0.00 | 0.00 | 0.00 | 61 | 1019.8 |
| 20260902190504 | 35 | 240 | 0.0 | 8.0 | 0.00 | 0.00 | 0.00 | 59 | 1019.8 |
| 20260902185959 | 35 | 187 | 0.0 | 8.0 | 0.00 | 0.00 | 0.00 | 60 | 1019.8 |
| 20260902185455 | 35 | 180 | 0.0 | 14.5 | 0.00 | 0.00 | 0.00 | 59 | 1019.9 |
| 20260902184950 | 35 | 0 | 4.8 | 6.4 | 0.00 | 0.00 | 0.00 | 61 | 1020.0 |
| 20260902184446 | 35 | 186 | 8.0 | 17.7 | 0.00 | 0.00 | 0.00 | 58 | 1020.0 |
| 20260902183941 | 35 | 231 | 0.0 | 8.0 | 0.00 | 0.00 | 0.00 | 60 | 1019.9 |
| 20260902183437 | 35 | 159 | 4.8 | 11.3 | 0.00 | 0.00 | 0.00 | 62 | 1020.0 |
| 20260902182933 | 34 | 196 | 8.0 | 20.9 | 0.00 | 0.00 | 0.00 | 60 | 1020.2 |
| 20260902182430 | 34 | 200 | 8.0 | 17.7 | 0.00 | 0.00 | 0.00 | 60 | 1020.3 |
| 20260902181926 | 34 | 23 | 0.0 | 27.4 | 0.00 | 0.00 | 0.00 | 63 | 1020.1 |
| 20260902181421 | 34 | 143 | 14.5 | 14.5 | 0.00 | 0.00 | 0.00 | 61 | 1020.2 |
| 20260902180921 | 33 | 299 | 4.8 | 12.9 | 0.00 | 0.00 | 0.00 | 61 | 1020.4 |
| 20260902180416 | 34 | 153 | 11.3 | 11.3 | 0.00 | 0.00 | 0.00 | 59 | 1020.2 |
| 20260902175912 | 35 | 15 | 3.2 | 8.0 | 0.00 | 0.00 | 0.00 | 62 | 1020.3 |
| 20260902175407 | 34 | 150 | 8.0 | 16.1 | 0.00 | 0.00 | 0.00 | 61 | 1020.4 |
| 20260902174903 | 34 | 261 | 4.8 | 8.0 | 0.00 | 0.00 | 0.00 | 61 | 1020.5 |
| 20260902174359 | 33 | 184 | 0.0 | 12.9 | 0.00 | 0.00 | 0.00 | 62 | 1020.3 |
| 20260902173854 | 33 | 315 | 4.8 | 11.3 | 0.00 | 0.00 | 0.00 | 63 | 1020.6 |
| 20260902173354 | 33 | 180 | 0.0 | 14.5 | 0.00 | 0.00 | 0.00 | 64 | 1020.4 |
| 20260902172849 | 33 | 231 | 4.8 | 17.7 | 0.00 | 0.00 | 0.00 | 62 | 1020.5 |
| 20260902172348 | 33 | 217 | 8.0 | 14.5 | 0.00 | 0.00 | 0.00 | 62 | 1020.8 |
| 20260902171843 | 33 | 251 | 0.0 | 11.3 | 0.00 | 0.00 | 0.00 | 63 | 1020.8 |
| 20260902171339 | 33 | 233 | 6.4 | 11.3 | 0.00 | 0.00 | 0.00 | 65 | 1020.9 |
| 20260902170835 | 33 | 188 | 4.8 | 14.5 | 0.00 | 0.00 | 0.00 | 63 | 1021.0 |
| 20260902170330 | 33 | 192 | 8.0 | 14.5 | 0.00 | 0.00 | 0.00 | 62 | 1020.9 |
| 20260902165826 | 33 | 186 | 6.4 | 17.7 | 0.00 | 0.00 | 0.00 | 63 | 1021.0 |
| 20260902165325 | 33 | 311 | 4.8 | 11.3 | 0.00 | 0.00 | 0.00 | 64 | 1020.9 |
| 20260902164820 | 33 | 306 | 3.2 | 11.3 | 0.00 | 0.00 | 0.00 | 62 | 1021.1 |
| 20260902164315 | 33 | 180 | 0.0 | 11.3 | 0.00 | 0.00 | 0.00 | 65 | 1020.9 |
| 20260902163808 | 34 | 255 | 8.0 | 8.0 | 0.00 | 0.00 | 0.00 | 66 | 1020.9 |
| 20260902163303 | 33 | 304 | 6.4 | 12.9 | 0.00 | 0.00 | 0.00 | 65 | 1020.9 |
| 20260902162801 | 33 | 291 | 8.0 | 16.1 | 0.00 | 0.00 | 0.00 | 62 | 1021.0 |
| 20260902162256 | 33 | 146 | 4.8 | 14.5 | 0.00 | 0.00 | 0.00 | 65 | 1020.9 |
| 20260902161751 | 33 | 250 | 4.8 | 17.7 | 0.00 | 0.00 | 0.00 | 63 | 1021.0 |
| 20260902161247 | 33 | 174 | 0.0 | 8.0 | 0.00 | 0.00 | 0.00 | 64 | 1021.1 |
| 20260902160743 | 33 | 0 | 0.0 | 6.4 | 0.00 | 0.00 | 0.00 | 65 | 1021.0 |
| 20260902160243 | 33 | 125 | 4.8 | 9.7 | 0.00 | 0.00 | 0.00 | 68 | 1021.0 |
| 20260902155741 | 33 | 195 | 0.0 | 8.0 | 0.00 | 0.00 | 0.00 | 66 | 1020.8 |
| 20260902155240 | 33 | 188 | 4.8 | 8.0 | 0.00 | 0.00 | 0.00 | 67 | 1020.9 |
| 20260902154735 | 33 | 255 | 6.4 | 11.3 | 0.00 | 0.00 | 0.00 | 66 | 1021.2 |
| 20260902154231 | 32 | 305 | 0.0 | 14.5 | 0.00 | 0.00 | 0.00 | 67 | 1020.9 |
| 20260902153729 | 32 | 214 | 4.8 | 8.0 | 0.00 | 0.00 | 0.00 | 69 | 1021.1 |
| 20260902153224 | 32 | 241 | 4.8 | 9.7 | 0.00 | 0.00 | 0.00 | 69 | 1021.0 |
| 20260902152720 | 32 | 270 | 3.2 | 8.0 | 0.00 | 0.00 | 0.00 | 68 | 1021.0 |
| 20260902152215 | 32 | 232 | 8.0 | 12.9 | 0.00 | 0.00 | 0.00 | 68 | 1021.0 |
| 20260902151711 | 32 | 294 | 4.8 | 11.3 | 0.00 | 0.00 | 0.00 | 70 | 1021.0 |
| 20260902151206 | 31 | 206 | 8.0 | 12.9 | 0.00 | 0.00 | 0.00 | 69 | 1021.3 |
| 20260902150701 | 32 | 204 | 9.7 | 11.3 | 0.00 | 0.00 | 0.00 | 69 | 1021.0 |
| 20260902150157 | 31 | 336 | 0.0 | 9.7 | 0.00 | 0.00 | 0.00 | 70 | 1021.0 |
| 20260902145656 | 31 | 295 | 4.8 | 16.1 | 0.00 | 0.00 | 0.00 | 70 | 1021.2 |
| 20260902145155 | 32 | 227 | 12.9 | 17.7 | 0.00 | 0.00 | 0.00 | 68 | 1021.0 |
| 20260902144652 | 32 | 185 | 0.0 | 14.5 | 0.00 | 0.00 | 0.00 | 73 | 1021.0 |
| 20260902144148 | 31 | 198 | 8.0 | 11.3 | 0.00 | 0.00 | 0.00 | 71 | 1021.1 |
| 20260902143648 | 31 | 90 | 6.4 | 8.0 | 0.00 | 0.00 | 0.00 | 71 | 1021.1 |
| 20260902143143 | 31 | 212 | 4.8 | 6.4 | 0.00 | 0.00 | 0.00 | 73 | 1021.2 |
| 20260902142639 | 31 | 337 | 4.8 | 11.3 | 0.00 | 0.00 | 0.00 | 71 | 1021.0 |
| 20260902142134 | 31 | 213 | 8.0 | 9.7 | 0.00 | 0.00 | 0.00 | 72 | 1021.1 |
| 20260902141633 | 31 | 145 | 0.0 | 8.0 | 0.00 | 0.00 | 0.00 | 73 | 1021.1 |
| 20260902141130 | 31 | 95 | 0.0 | 4.8 | 0.00 | 0.00 | 0.00 | 74 | 1021.1 |
| 20260902140624 | 30 | 300 | 4.8 | 14.5 | 0.00 | 0.00 | 0.00 | 75 | 1021.1 |
| 20260902140119 | 30 | 189 | 9.7 | 16.1 | 0.00 | 0.00 | 0.00 | 72 | 1020.9 |
| 20260902135619 | 31 | 289 | 0.0 | 8.0 | 0.00 | 0.00 | 0.00 | 72 | 1020.9 |
| 20260902135114 | 30 | 187 | 0.0 | 8.0 | 0.00 | 0.00 | 0.00 | 75 | 1021.1 |
| 20260902134609 | 30 | 243 | 4.8 | 11.3 | 0.00 | 0.00 | 0.00 | 77 | 1021.0 |
| 20260902134104 | 29 | 209 | 0.0 | 8.0 | 0.00 | 0.00 | 0.00 | 77 | 1020.9 |
| 20260902133558 | 29 | 198 | 0.0 | 8.0 | 0.00 | 0.00 | 0.00 | 77 | 1021.1 |
| 20260902133059 | 29 | 196 | 9.7 | 9.7 | 0.00 | 0.00 | 0.00 | 78 | 1020.9 |
| 20260902132554 | 28 | 202 | 0.0 | 6.4 | 0.00 | 0.00 | 0.00 | 78 | 1021.1 |
| 20260902132049 | 28 | 0 | 0.0 | 8.0 | 0.00 | 0.00 | 0.00 | 80 | 1021.1 |
| 20260902131546 | 28 | 199 | 4.8 | 14.5 | 0.00 | 0.00 | 0.00 | 79 | 1021.1 |
| 20260902131046 | 28 | 173 | 0.0 | 6.4 | 0.00 | 0.00 | 0.00 | 80 | 1021.3 |
| 20260902130542 | 27 | 200 | 3.2 | 8.0 | 0.00 | 0.00 | 0.00 | 80 | 1021.1 |
| 20260902130037 | 28 | 127 | 0.0 | 4.8 | 0.00 | 0.00 | 0.00 | 82 | 1021.1 |
| 20260902125533 | 27 | 154 | 3.2 | 4.8 | 0.00 | 0.00 | 0.00 | 84 | 1020.9 |
| 20260902125028 | 26 | 188 | 0.0 | 4.8 | 0.00 | 0.00 | 0.00 | 84 | 1021.2 |
| 20260902124525 | 26 | 160 | 3.2 | 6.4 | 0.00 | 0.00 | 0.00 | 85 | 1021.1 |
| 20260902124025 | 26 | 159 | 6.4 | 6.4 | 0.00 | 0.00 | 0.00 | 86 | 1020.8 |
| 20260902123521 | 26 | 180 | 0.0 | 6.4 | 0.00 | 0.00 | 0.00 | 87 | 1021.1 |
| 20260902123020 | 26 | 184 | 0.0 | 8.0 | 0.00 | 0.00 | 0.00 | 88 | 1021.3 |
| 20260902122515 | 25 | 148 | 4.8 | 4.8 | 0.00 | 0.00 | 0.00 | 90 | 1021.0 |
| 20260902122010 | 25 | 187 | 3.2 | 6.4 | 0.00 | 0.00 | 0.00 | 90 | 1020.8 |
| 20260902121505 | 25 | 110 | 0.0 | 4.8 | 0.00 | 0.00 | 0.00 | 92 | 1020.9 |
| 20260902121000 | 24 | 154 | 0.0 | 4.8 | 0.00 | 0.00 | 0.00 | 93 | 1020.8 |
| 20260902120456 | 23 | 174 | 3.2 | 6.4 | 0.00 | 0.00 | 0.00 | 95 | 1020.7 |
| 20260902115956 | 23 | 172 | 0.0 | 8.0 | 0.00 | 0.00 | 0.00 | 96 | 1020.7 |
| 20260902115452 | 23 | 127 | 4.8 | 4.8 | 0.00 | 0.00 | 0.00 | 97 | 1020.9 |
| 20260902114948 | 22 | 135 | 6.4 | 6.4 | 0.00 | 0.00 | 0.00 | 97 | 1020.9 |
| 20260902114444 | 22 | 120 | 3.2 | 4.8 | 0.00 | 0.00 | 0.00 | 98 | 1020.6 |
| 20260902113939 | 22 | 105 | 0.0 | 6.4 | 0.00 | 0.00 | 0.00 | 98 | 1020.4 |
| 20260902113434 | 22 | 114 | 3.2 | 6.4 | 0.00 | 0.00 | 0.00 | 98 | 1020.5 |
| 20260902112933 | 21 | 166 | 0.0 | 6.4 | 0.00 | 0.00 | 0.00 | 98 | 1020.6 |
| 20260902112430 | 21 | 131 | 0.0 | 4.8 | 0.00 | 0.00 | 0.00 | 98 | 1020.4 |
| 20260902111926 | 21 | 145 | 3.2 | 4.8 | 0.00 | 0.00 | 0.00 | 98 | 1020.4 |
| 20260902111422 | 21 | 99 | 0.0 | 4.8 | 0.00 | 0.00 | 0.00 | 98 | 1020.1 |
| 20260902110917 | 21 | 121 | 4.8 | 6.4 | 0.00 | 0.00 | 0.00 | 98 | 1020.2 |
| 20260902110414 | 21 | 140 | 4.8 | 6.4 | 0.00 | 0.00 | 0.00 | 98 | 1020.5 |
| 20260902105914 | 21 | 127 | 0.0 | 6.4 | 0.00 | 0.00 | 0.00 | 98 | 1020.5 |
| 20260902105409 | 21 | 120 | 0.0 | 6.4 | 0.00 | 0.00 | 0.00 | 98 | 1020.1 |
| 20260902104904 | 21 | 140 | 0.0 | 4.8 | 0.00 | 0.00 | 0.00 | 98 | 1019.9 |
| 20260902104400 | 21 | 111 | 0.0 | 8.0 | 0.00 | 0.00 | 0.00 | 98 | 1020.1 |
| 20260902103859 | 21 | 99 | 0.0 | 8.0 | 0.00 | 0.00 | 0.00 | 98 | 1020.0 |
| 20260902103354 | 21 | 124 | 0.0 | 4.8 | 0.00 | 0.00 | 0.00 | 98 | 1020.2 |
| 20260902102849 | 21 | 123 | 0.0 | 4.8 | 0.00 | 0.00 | 0.00 | 97 | 1020.2 |
| 20260902102348 | 21 | 157 | 4.8 | 4.8 | 0.00 | 0.00 | 0.00 | 97 | 1019.9 |
| 20260902101842 | 21 | 135 | 4.8 | 6.4 | 0.00 | 0.00 | 0.00 | 97 | 1020.0 |
| 20260902101337 | 22 | 112 | 0.0 | 4.8 | 0.00 | 0.00 | 0.00 | 97 | 1020.2 |
| 20260902100837 | 22 | 126 | 0.0 | 6.4 | 0.00 | 0.00 | 0.00 | 97 | 1020.3 |
| 20260902100336 | 22 | 140 | 4.8 | 6.4 | 0.00 | 0.00 | 0.00 | 97 | 1020.3 |
| 20260902095831 | 22 | 124 | 4.8 | 4.8 | 0.00 | 0.00 | 0.00 | 97 | 1020.1 |
| 20260902095326 | 22 | 108 | 4.8 | 6.4 | 0.00 | 0.00 | 0.00 | 96 | 1020.1 |
| 20260902094825 | 22 | 107 | 4.8 | 4.8 | 0.00 | 0.00 | 0.00 | 96 | 1020.1 |
| 20260902094322 | 22 | 117 | 3.2 | 4.8 | 0.00 | 0.00 | 0.00 | 96 | 1020.1 |
| 20260902093821 | 22 | 120 | 0.0 | 6.4 | 0.00 | 0.00 | 0.00 | 96 | 1020.0 |
| 20260902093316 | 22 | 111 | 3.2 | 4.8 | 0.00 | 0.00 | 0.00 | 95 | 1020.1 |
| 20260902092815 | 22 | 127 | 4.8 | 6.4 | 0.00 | 0.00 | 0.00 | 95 | 1020.2 |
| 20260902092311 | 22 | 117 | 4.8 | 6.4 | 0.00 | 0.00 | 0.00 | 95 | 1019.9 |
| 20260902091811 | 22 | 126 | 3.2 | 6.4 | 0.00 | 0.00 | 0.00 | 95 | 1020.1 |
| 20260902091307 | 22 | 135 | 4.8 | 4.8 | 0.00 | 0.00 | 0.00 | 94 | 1019.9 |
| 20260902090803 | 22 | 103 | 4.8 | 4.8 | 0.00 | 0.00 | 0.00 | 94 | 1019.9 |
| 20260902090302 | 22 | 126 | 0.0 | 4.8 | 0.00 | 0.00 | 0.00 | 94 | 1020.0 |
| 20260902085801 | 22 | 124 | 0.0 | 4.8 | 0.00 | 0.00 | 0.00 | 94 | 1019.9 |
| 20260902085257 | 22 | 120 | 3.2 | 4.8 | 0.00 | 0.00 | 0.00 | 93 | 1019.9 |
| 20260902084752 | 23 | 117 | 3.2 | 4.8 | 0.00 | 0.00 | 0.00 | 93 | 1019.8 |
| 20260902084248 | 23 | 127 | 4.8 | 4.8 | 0.00 | 0.00 | 0.00 | 93 | 1020.0 |
| 20260902083743 | 23 | 117 | 4.8 | 4.8 | 0.00 | 0.00 | 0.00 | 93 | 1020.0 |
| 20260902083238 | 23 | 117 | 3.2 | 4.8 | 0.00 | 0.00 | 0.00 | 93 | 1019.7 |
| 20260902082733 | 23 | 102 | 4.8 | 4.8 | 0.00 | 0.00 | 0.00 | 93 | 1020.0 |
| 20260902082230 | 23 | 131 | 0.0 | 4.8 | 0.00 | 0.00 | 0.00 | 93 | 1019.6 |
| 20260902081726 | 23 | 151 | 0.0 | 6.4 | 0.00 | 0.00 | 0.00 | 93 | 1019.9 |
| 20260902081221 | 23 | 126 | 3.2 | 4.8 | 0.00 | 0.00 | 0.00 | 93 | 1019.8 |
| 20260902080716 | 23 | 90 | 0.0 | 4.8 | 0.00 | 0.00 | 0.00 | 93 | 1019.5 |
| 20260902080213 | 23 | 120 | 3.2 | 4.8 | 0.00 | 0.00 | 0.00 | 92 | 1019.5 |
| 20260902075712 | 23 | 106 | 0.0 | 3.2 | 0.00 | 0.00 | 0.00 | 92 | 1019.6 |
| 20260902075209 | 23 | 121 | 4.8 | 4.8 | 0.00 | 0.00 | 0.00 | 93 | 1019.5 |
| 20260902074708 | 23 | 81 | 0.0 | 4.8 | 0.00 | 0.00 | 0.00 | 92 | 1019.5 |
| 20260902074203 | 23 | 106 | 0.0 | 4.8 | 0.00 | 0.00 | 0.00 | 92 | 1019.6 |
| 20260902073659 | 23 | 99 | 0.0 | 4.8 | 0.00 | 0.00 | 0.00 | 92 | 1019.6 |
| 20260902073155 | 23 | 114 | 0.0 | 4.8 | 0.00 | 0.00 | 0.00 | 92 | 1019.5 |
| 20260902072651 | 23 | 120 | 0.0 | 4.8 | 0.00 | 0.00 | 0.00 | 92 | 1019.5 |
| 20260902072147 | 23 | 127 | 4.8 | 4.8 | 0.00 | 0.00 | 0.00 | 92 | 1019.8 |
| 20260902071642 | 23 | 99 | 0.0 | 3.2 | 0.00 | 0.00 | 0.00 | 92 | 1019.5 |
| 20260902071138 | 23 | 148 | 0.0 | 4.8 | 0.00 | 0.00 | 0.00 | 91 | 1019.7 |
| 20260902070634 | 23 | 126 | 0.0 | 4.8 | 0.00 | 0.00 | 0.00 | 91 | 1019.6 |
| 20260902070133 | 23 | 114 | 0.0 | 4.8 | 0.00 | 0.00 | 0.00 | 91 | 1019.7 |
| 20260902065632 | 23 | 126 | 3.2 | 4.8 | 0.00 | 0.00 | 0.00 | 91 | 1019.7 |
| 20260902065128 | 23 | 123 | 0.0 | 4.8 | 0.00 | 0.00 | 0.00 | 90 | 1019.6 |
| 20260902064623 | 23 | 105 | 3.2 | 3.2 | 0.00 | 0.00 | 0.00 | 90 | 1019.8 |
| 20260902064119 | 23 | 106 | 0.0 | 3.2 | 0.00 | 0.00 | 0.00 | 90 | 1019.6 |
| 20260902063614 | 24 | 106 | 3.2 | 3.2 | 0.00 | 0.00 | 0.00 | 89 | 1019.6 |
| 20260902063109 | 24 | 90 | 0.0 | 3.2 | 0.00 | 0.00 | 0.00 | 89 | 1019.8 |
| 20260902062607 | 24 | 90 | 0.0 | 3.2 | 0.00 | 0.00 | 0.00 | 89 | 1019.8 |
| 20260902062103 | 24 | 114 | 0.0 | 3.2 | 0.00 | 0.00 | 0.00 | 89 | 1019.8 |
| 20260902061603 | 24 | 114 | 4.8 | 4.8 | 0.00 | 0.00 | 0.00 | 88 | 1019.8 |
| 20260902061059 | 24 | 106 | 0.0 | 4.8 | 0.00 | 0.00 | 0.00 | 88 | 1019.9 |
| 20260902060555 | 25 | 109 | 3.2 | 4.8 | 0.00 | 0.00 | 0.00 | 88 | 1019.7 |
| 20260902060051 | 25 | 165 | 0.0 | 3.2 | 0.00 | 0.00 | 0.00 | 88 | 1019.7 |
| 20260902055546 | 25 | 120 | 0.0 | 3.2 | 0.00 | 0.00 | 0.00 | 88 | 1019.7 |
| 20260902055042 | 25 | 109 | 3.2 | 4.8 | 0.00 | 0.00 | 0.00 | 88 | 1019.6 |
| 20260902054537 | 25 | 157 | 0.0 | 4.8 | 0.00 | 0.00 | 0.00 | 87 | 1019.6 |
| 20260902054032 | 25 | 111 | 3.2 | 4.8 | 0.00 | 0.00 | 0.00 | 87 | 1019.7 |
| 20260902053532 | 25 | 90 | 0.0 | 3.2 | 0.00 | 0.00 | 0.00 | 86 | 1020.0 |
| 20260902053027 | 25 | 114 | 3.2 | 4.8 | 0.00 | 0.00 | 0.00 | 86 | 1020.0 |
| 20260902052521 | 25 | 166 | 0.0 | 3.2 | 0.00 | 0.00 | 0.00 | 85 | 1019.8 |
| 20260902052017 | 25 | 173 | 0.0 | 4.8 | 0.00 | 0.00 | 0.00 | 85 | 1019.8 |
| 20260902051517 | 25 | 120 | 3.2 | 3.2 | 0.00 | 0.00 | 0.00 | 85 | 1019.8 |
| 20260902051015 | 26 | 180 | 0.0 | 4.8 | 0.00 | 0.00 | 0.00 | 84 | 1019.8 |
| 20260902050510 | 25 | 144 | 4.8 | 4.8 | 0.00 | 0.00 | 0.00 | 84 | 1019.7 |
| 20260902050008 | 26 | 151 | 3.2 | 8.0 | 0.00 | 0.00 | 0.00 | 84 | 1019.8 |
| 20260902045501 | 26 | 114 | 0.0 | 4.8 | 0.00 | 0.00 | 0.00 | 83 | 1019.7 |
| 20260902044957 | 26 | 184 | 4.8 | 8.0 | 0.00 | 0.00 | 0.00 | 84 | 1019.7 |
| 20260902044452 | 26 | 151 | 0.0 | 4.8 | 0.00 | 0.00 | 0.00 | 83 | 1019.8 |
| 20260902043948 | 26 | 132 | 0.0 | 4.8 | 0.00 | 0.00 | 0.00 | 83 | 1019.8 |
| 20260902043443 | 26 | 49 | 0.0 | 6.4 | 0.00 | 0.00 | 0.00 | 82 | 1019.7 |
| 20260902042938 | 26 | 162 | 0.0 | 4.8 | 0.00 | 0.00 | 0.00 | 82 | 1019.7 |
| 20260902042437 | 26 | 162 | 0.0 | 4.8 | 0.00 | 0.00 | 0.00 | 82 | 1019.9 |
| 20260902041932 | 26 | 82 | 0.0 | 4.8 | 0.00 | 0.00 | 0.00 | 82 | 1019.8 |
| 20260902041427 | 26 | 114 | 0.0 | 4.8 | 0.00 | 0.00 | 0.00 | 82 | 1019.7 |
| 20260902040926 | 26 | 103 | 3.2 | 4.8 | 0.00 | 0.00 | 0.00 | 81 | 1019.9 |
| 20260902040421 | 26 | 161 | 0.0 | 4.8 | 0.00 | 0.00 | 0.00 | 81 | 1019.7 |
| 20260902035920 | 26 | 162 | 0.0 | 4.8 | 0.00 | 0.00 | 0.00 | 82 | 1019.9 |
| 20260902035415 | 26 | 160 | 0.0 | 8.0 | 0.00 | 0.00 | 0.00 | 82 | 1019.7 |
| 20260902034915 | 26 | 103 | 0.0 | 4.8 | 0.00 | 0.00 | 0.00 | 81 | 1019.7 |
| 20260902034410 | 26 | 157 | 3.2 | 9.7 | 0.00 | 0.00 | 0.00 | 81 | 1019.6 |
| 20260902033909 | 26 | 154 | 0.0 | 4.8 | 0.00 | 0.00 | 0.00 | 82 | 1019.7 |
| 20260902033403 | 26 | 90 | 0.0 | 4.8 | 0.00 | 0.00 | 0.00 | 82 | 1019.8 |
| 20260902032902 | 26 | 145 | 0.0 | 6.4 | 0.00 | 0.00 | 0.00 | 82 | 1019.6 |
| 20260902032356 | 26 | 114 | 0.0 | 4.8 | 0.00 | 0.00 | 0.00 | 82 | 1019.9 |
| 20260902031851 | 26 | 90 | 3.2 | 4.8 | 0.00 | 0.00 | 0.00 | 83 | 1019.7 |
| 20260902031347 | 26 | 98 | 3.2 | 4.8 | 0.00 | 0.00 | 0.00 | 83 | 1019.6 |
| 20260902030842 | 26 | 145 | 0.0 | 3.2 | 0.00 | 0.00 | 0.00 | 83 | 1019.8 |
| 20260902030337 | 26 | 106 | 0.0 | 4.8 | 0.00 | 0.00 | 0.00 | 83 | 1019.7 |
| 20260902025836 | 26 | 154 | 0.0 | 4.8 | 0.00 | 0.00 | 0.00 | 83 | 1019.8 |
| 20260902025332 | 26 | 120 | 0.0 | 4.8 | 0.00 | 0.00 | 0.00 | 83 | 1019.8 |
| 20260902024826 | 26 | 145 | 0.0 | 4.8 | 0.00 | 0.00 | 0.00 | 84 | 1019.9 |
| 20260902024322 | 26 | 135 | 0.0 | 4.8 | 0.00 | 0.00 | 0.00 | 84 | 1019.8 |
| 20260902023817 | 26 | 120 | 0.0 | 4.8 | 0.00 | 0.00 | 0.00 | 84 | 1020.0 |
| 20260902023313 | 26 | 120 | 0.0 | 4.8 | 0.00 | 0.00 | 0.00 | 84 | 1020.0 |
| 20260902022811 | 26 | 165 | 0.0 | 3.2 | 0.00 | 0.00 | 0.00 | 84 | 1019.9 |
| 20260902022301 | 26 | 98 | 0.0 | 4.8 | 0.00 | 0.00 | 0.00 | 84 | 1019.7 |
| 20260902021757 | 26 | 99 | 3.2 | 3.2 | 0.00 | 0.00 | 0.00 | 83 | 1019.6 |
| 20260902021257 | 26 | 168 | 3.2 | 4.8 | 0.00 | 0.00 | 0.00 | 84 | 1019.6 |
| 20260902020753 | 27 | 106 | 0.0 | 3.2 | 0.00 | 0.00 | 0.00 | 83 | 1019.6 |
| 20260902020249 | 27 | 180 | 0.0 | 4.8 | 0.00 | 0.00 | 0.00 | 83 | 1019.7 |
| 20260902015744 | 27 | 151 | 0.0 | 3.2 | 0.00 | 0.00 | 0.00 | 83 | 1019.8 |
| 20260902015241 | 27 | 151 | 0.0 | 3.2 | 0.00 | 0.00 | 0.00 | 83 | 1019.7 |
| 20260902014736 | 27 | 286 | 3.2 | 4.8 | 0.00 | 0.00 | 0.00 | 83 | 1019.7 |
| 20260902014232 | 27 | 240 | 3.2 | 3.2 | 0.00 | 0.00 | 0.00 | 83 | 1019.4 |
| 20260902013730 | 27 | 105 | 0.0 | 3.2 | 0.00 | 0.00 | 0.00 | 83 | 1019.4 |
| 20260902013227 | 27 | 229 | 0.0 | 6.4 | 0.00 | 0.00 | 0.00 | 83 | 1019.5 |
| 20260902012722 | 27 | 157 | 0.0 | 4.8 | 0.00 | 0.00 | 0.00 | 83 | 1019.4 |
| 20260902012218 | 27 | 195 | 0.0 | 3.2 | 0.00 | 0.00 | 0.00 | 83 | 1019.3 |
| 20260902011713 | 27 | 97 | 0.0 | 3.2 | 0.00 | 0.00 | 0.00 | 83 | 1019.4 |